Home   Weather   Miami   Past weeks

Flag for USA Past Weather in Miami, Florida, USA — Yesterday and Last 2 Weeks

Now
80 °F

Passing clouds.


Feels Like: 84 °F
Forecast: 79 / 84 °F
Wind: 21 mph from East

Location: Miami International Airport

Current Time: Apr 30, 2017 at 10:53:35 pm

Latest Report: Apr 30, 2017 at 9:53 pm


Visibility: 10 mi

Pressure: 30.09 "Hg

Humidity: 74%

Dew Point: 71 °F

Location of MiamiLocation

Past Weather in Miami — Graph

°F

Miami Temperature Yesterday

Maximum temperature yesterday: 87 °F (at 12:53 pm)
Minimum temperature yesterday: 79 °F (at 4:53 am)
Average temperature yesterday: 82 °F

High & Low Weather Summary for the Past Weeks

 TemperatureHumidityPressure
High89 °F (Apr 24, 2:53 pm)97% (Apr 24, 5:53 am)30.19 "Hg (Apr 24, 5:53 am)
Low66 °F (Apr 26, 3:53 am)37% (Apr 25, 2:53 pm)29.73 "Hg (Apr 24, 3:53 pm)
Average78 °F67%29.99 "Hg
* Reported Apr 15 8:53 pm — Apr 30 8:53 pm, Miami, Weather by CustomWeather, © 2017

Note: Actual official high and low records may vary slightly from our data, if they occured in-between our weather recording intervals... More about our weather records

Advertising

Miami Weather History for the Previous 24 Hours

Scroll right to see more
 ConditionsComfort  
Time TempWeatherWind HumidityBarometerVisibility
8:53 pm
Sun, Apr 30
81 °FPassing clouds.18 mph72%30.08 "Hg10 mi
7:53 pm81 °FPassing clouds.17 mph72%30.06 "Hg10 mi
6:53 pm82 °FPartly sunny.16 mph67%30.06 "Hg10 mi
5:53 pm83 °FPartly sunny.15 mph65%30.06 "Hg10 mi
4:53 pm84 °FPartly sunny.16 mph63%30.06 "Hg10 mi
3:53 pm85 °FPartly sunny.17 mph61%30.08 "Hg10 mi
2:53 pm85 °FBroken clouds.21 mph59%30.09 "Hg10 mi
1:53 pm85 °FBroken clouds.21 mph59%30.10 "Hg10 mi
12:53 pm85 °FBroken clouds.21 mph61%30.10 "Hg10 mi
11:53 am84 °FBroken clouds.20 mph61%30.12 "Hg10 mi
10:53 am84 °FBroken clouds.20 mph61%30.12 "Hg10 mi
9:53 am83 °FBroken clouds.22 mph63%30.12 "Hg10 mi
8:53 am81 °FBroken clouds.18 mph67%30.12 "Hg10 mi
7:53 am80 °FBroken clouds.12 mph69%30.10 "Hg10 mi
6:53 am79 °FPartly sunny.14 mph72%30.09 "Hg10 mi
5:53 am79 °FPartly cloudy.16 mph69%30.08 "Hg10 mi
4:53 am79 °FPassing clouds.16 mph72%30.07 "Hg10 mi
3:53 am80 °FPartly cloudy.20 mph67%30.08 "Hg10 mi
2:53 am80 °FPartly cloudy.14 mph71%30.08 "Hg10 mi
1:53 am80 °FPassing clouds.21 mph71%30.09 "Hg10 mi
12:53 am80 °FPassing clouds.23 mph74%30.10 "Hg10 mi
11:53 pm
Sat, Apr 29
80 °FPassing clouds.17 mph74%30.11 "Hg10 mi
11:43 pm81 °FPassing clouds.20 mph72%30.11 "Hg10 mi
11:15 pm81 °FPassing clouds.21 mph72%30.11 "Hg10 mi
10:53 pm81 °FPassing clouds.22 mph72%30.11 "Hg10 mi
Weather by CustomWeather, © 2017

See weather overviewHow to use our weather pages